Location: Newcastle Observatory
(43.9158°N, 78.5831°W)
Time: 10:28:53
(UTC-04:00)

Amateur Radio Satellites - All Passes

Search period start: 25 April 2015 09:58
Search period end: 26 April 2015 09:58
Location: Newcastle Observatory, 43.9158°N, 78.5831°W

Satellite Date Start Highest point End Downlink Frequencies (MHz)
Time Altitude Azimuth
UWE-3 25 Apr 10:00:27 10:03:06 15° 88° (E) 10:05:57 435.000/436.395/437.385
O/OREOS (USA 219) 25 Apr 10:04:19 10:07:21 17° 259° (WSW) 10:10:13 437.305
FUNcube-1 25 Apr 10:11:30 10:14:06 15° 88° (E) 10:16:54 145.935
POLYITAN 1 25 Apr 10:11:47 10:13:59 14° 63° (ENE) 10:16:22 437.675
DUCHIFAT 1 25 Apr 10:13:31 10:15:40 14° 63° (ENE) 10:18:00 145.980
ANTELSAT 25 Apr 10:15:13 10:19:13 32° 68° (ENE) 10:23:21 437.575/2403.000
HO-68 25 Apr 10:16:42 10:23:57 83° 106° (ESE) 10:31:08 435.675
DOVE 4 25 Apr 10:17:18 10:22:25 88° 284° (WNW) 10:27:42 437.250
COMPASS 1 25 Apr 10:25:01 10:29:16 88° 103° (ESE) 10:33:27 437.405
YUBILEINY 25 Apr 10:27:59 10:35:18 32° 84° (E) 10:42:50 435.215
QB50P1 25 Apr 10:29:34 10:32:41 21° 66° (ENE) 10:35:55 145.935-145.965
ZACube-1 25 Apr 10:35:42 10:39:38 27° 94° (E) 10:43:34 437.345
Oscar 11 25 Apr 10:36:07 10:40:20 46° 98° (E) 10:44:30 145.826/435.025
HUMSAT D 25 Apr 10:36:32 10:38:24 13° 88° (E) 10:40:29 437.325/437.525
DELFI C3 25 Apr 10:46:52 10:50:46 44° 98° (E) 10:54:38 145.870
SEEDS 25 Apr 10:49:57 10:53:58 40° 289° (WNW) 10:57:55 437.485
QB50P2 25 Apr 10:54:34 10:58:28 38° 71° (ENE) 11:02:26 145.880/145.840
AISAT 25 Apr 10:57:17 10:59:11 13° 88° (E) 11:01:19 437.250
CANX-2 25 Apr 10:57:51 11:01:30 27° 292° (WNW) 11:05:03 2200.000
TIGRISAT 25 Apr 11:05:05 11:09:36 85° 257° (WSW) 11:14:16 435.000
CINEMA 3 25 Apr 11:05:37 11:10:31 57° 286° (WNW) 11:15:26 145.822/145.860
CUTE 1.7 + AOD 2 25 Apr 11:07:12 11:10:40 24° 293° (WNW) 11:14:04 437.475
CUBEBUG 2 25 Apr 11:08:09 11:12:57 87° 103° (ESE) 11:17:44 437.445
AAUSAT CUBESAT 2 25 Apr 11:08:22 11:12:15 36° 289° (WNW) 11:16:03 437.432
DX 1 25 Apr 11:09:00 11:12:58 34° 97° (E) 11:16:57 434.975-435.025
UNISAT 6 25 Apr 11:09:10 11:13:42 75° 259° (W) 11:18:22 437.425
NANOSAT C BR1 25 Apr 11:12:49 11:16:56 59° 73° (ENE) 11:21:06 145.865
POPSAT HIP 1 25 Apr 11:15:44 11:19:54 64° 74° (ENE) 11:24:06 437.405
Cosmos 2491 25 Apr 11:16:06 11:24:49 63° 267° (W) 11:33:27 435.465 / 435.565
GOMX 1 25 Apr 11:17:13 11:20:56 20° 295° (WNW) 11:24:40 467.674
AIST 1 25 Apr 11:24:59 11:27:55 18° 69° (ENE) 11:30:58
BRITE-PL 25 Apr 11:28:54 11:30:44 12° 299° (WNW) 11:32:19 437.365/2234.400
PCSat 25 Apr 11:32:50 11:35:46 14° 327° (NNW) 11:38:34 145.827
BEESAT 3 25 Apr 11:33:21 11:37:14 38° 49° (NE) 11:41:04 437.485
ESTCUBE 1 25 Apr 11:33:45 11:36:37 17° 90° (E) 11:39:38 437.505/2401.250
BEESAT 2 25 Apr 11:34:11 11:37:58 34° 47° (NE) 11:41:44 435.950
UWE-3 25 Apr 11:35:27 11:40:06 61° 286° (WNW) 11:44:43 435.000/436.395/437.385
50 SAT 25 Apr 11:35:30 11:39:10 32° 96° (E) 11:42:50 437.505
BUGSAT 1 25 Apr 11:43:05 11:47:06 89° 69° (ENE) 11:51:10 437.445
POLYITAN 1 25 Apr 11:45:18 11:49:28 59° 259° (W) 11:53:42 437.675
FUNcube-1 25 Apr 11:46:20 11:50:53 59° 286° (WNW) 11:55:23 145.935
DUCHIFAT 1 25 Apr 11:46:55 11:51:04 59° 259° (W) 11:55:15 145.980
ISS 25 Apr 11:50:16 11:51:58 14° 133° (SE) 11:53:47 145.825
ANTELSAT 25 Apr 11:52:04 11:56:01 28° 266° (W) 11:59:59 437.575/2403.000
UKube-1 25 Apr 11:52:32 11:56:54 87° 291° (WNW) 12:01:14 .
DOVE 4 25 Apr 11:57:08 11:59:33 13° 299° (WNW) 12:01:47 437.250
QB50P1 25 Apr 12:04:26 12:08:22 37° 263° (W) 12:12:18 145.935-145.965
HO-68 25 Apr 12:05:37 12:10:57 22° 304° (NW) 12:16:03 435.675
HUMSAT D 25 Apr 12:10:21 12:14:40 63° 286° (WNW) 12:18:56 437.325/437.525
ZACube-1 25 Apr 12:11:52 12:16:01 33° 291° (WNW) 12:20:05 437.345
Oscar 11 25 Apr 12:13:09 12:16:12 18° 295° (WNW) 12:19:08 145.826/435.025
VELOX 1 25 Apr 12:14:07 12:18:35 79° 103° (ESE) 12:23:02 145.980
CUBEBUG 1 25 Apr 12:20:52 12:25:04 45° 99° (E) 12:29:17 437.445
YUBILEINY 25 Apr 12:22:57 12:31:41 61° 284° (WNW) 12:40:24 435.215
DELFI C3 25 Apr 12:22:58 12:25:35 16° 295° (WNW) 12:28:05 145.870
QB50P2 25 Apr 12:31:24 12:34:33 20° 268° (W) 12:37:37 145.880/145.840
AIST 2 25 Apr 12:31:51 12:35:55 42° 49° (NE) 12:39:56 435.215
AISAT 25 Apr 12:31:52 12:36:19 66° 286° (WNW) 12:40:44 437.250
SO-50 25 Apr 12:34:56 12:39:35 81° 123° (ESE) 12:44:26 436.795
Oscar 19 25 Apr 12:38:19 12:42:01 21° 63° (ENE) 12:45:53 437.125/150
DX 1 25 Apr 12:45:31 12:49:06 24° 293° (WNW) 12:52:35 434.975-435.025
CUBEBUG 2 25 Apr 12:46:55 12:49:01 13° 299° (WNW) 12:50:54 437.445
NANOSAT C BR1 25 Apr 12:51:12 12:53:15 13° 272° (W) 12:55:05 145.865
POPSAT HIP 1 25 Apr 12:54:35 12:56:18 12° 272° (W) 12:57:49 437.405
AIST 1 25 Apr 13:01:48 13:05:49 40° 267° (W) 13:09:47
ESTCUBE 1 25 Apr 13:09:29 13:13:50 49° 288° (WNW) 13:18:09 437.505/2401.250
50 SAT 25 Apr 13:10:39 13:13:49 22° 293° (WNW) 13:16:53 437.505
BEESAT 3 25 Apr 13:11:48 13:15:03 22° 246° (WSW) 13:18:11 437.485
BEESAT 2 25 Apr 13:12:29 13:15:59 26° 245° (WSW) 13:19:23 435.950
ITAMSAT 1 25 Apr 13:13:22 13:16:01 15° 59° (ENE) 13:18:54 435.822/435.867
TISAT 1 25 Apr 13:14:02 13:17:59 36° 97° (E) 13:21:56 437.305
Cosmos 2491 25 Apr 13:17:03 13:20:03 12° 287° (WNW) 13:22:21 435.465 / 435.565
Cosmos 2504 25 Apr 13:17:41 13:25:31 38° 86° (E) 13:33:25 435.465 / 435.565
ISS 25 Apr 13:24:42 13:27:58 81° 327° (NNW) 13:31:15 145.825
AO-7 25 Apr 13:28:30 13:29:22 10° 38° (NE) 13:30:41 29.400- 29.500
Gurwin Techsat 1B 25 Apr 13:39:35 13:43:28 22° 63° (ENE) 13:47:30 435.225
BEESAT 25 Apr 13:40:49 13:42:34 12° 87° (E) 13:44:34 436.000
SWISSCUBE 25 Apr 13:42:46 13:45:07 14° 88° (E) 13:47:43 437.505
SPROUT 25 Apr 13:42:54 13:47:16 84° 282° (WNW) 13:51:36 437.525
VELOX 1 25 Apr 13:52:43 13:54:36 12° 299° (WNW) 13:56:16 145.980
CUBEBUG 1 25 Apr 13:58:03 14:01:09 19° 295° (WNW) 14:04:08 437.445
AIST 2 25 Apr 14:10:59 14:14:16 22° 247° (WSW) 14:17:26 435.215
Oscar 19 25 Apr 14:15:57 14:21:00 56° 260° (W) 14:26:07 437.125/150
SO-50 25 Apr 14:17:17 14:20:47 19° 324° (NW) 14:24:16 436.795
YUBILEINY 25 Apr 14:26:52 14:30:57 13° 309° (NW) 14:34:29 435.215
RS-15 25 Apr 14:32:46 14:42:53 48° 112° (ESE) 14:53:20 29.354- 29.394
ITUPSAT 1 25 Apr 14:45:18 14:49:58 52° 100° (E) 14:54:37 437.325
ITAMSAT 1 25 Apr 14:49:44 14:54:56 84° 258° (WSW) 15:00:08 435.822/435.867
TISAT 1 25 Apr 14:50:17 14:53:35 22° 294° (WNW) 14:56:48 437.305
JAS-2 25 Apr 14:59:22 15:05:35 28° 61° (ENE) 15:11:46 435.910
HORYU 2 25 Apr 15:01:13 15:04:41 23° 66° (ENE) 15:08:15 437.375
ISS 25 Apr 15:01:56 15:04:42 24° 348° (NNW) 15:07:27 145.825
Cosmos 2504 25 Apr 15:10:05 15:18:44 53° 286° (WNW) 15:27:15 435.465 / 435.565
AO-7 25 Apr 15:12:34 15:20:02 41° 60° (ENE) 15:27:39 29.400- 29.500
BEESAT 25 Apr 15:16:18 15:21:05 77° 285° (WNW) 15:25:50 436.000
KKS-1 25 Apr 15:16:38 15:20:03 22° 93° (E) 15:23:34 437.445
Gurwin Techsat 1B 25 Apr 15:17:53 15:23:06 56° 260° (W) 15:28:20 435.225
SWISSCUBE 25 Apr 15:18:48 15:23:32 67° 287° (WNW) 15:28:15 437.505
STARS 25 Apr 16:11:15 16:15:35 50° 99° (E) 16:19:56 437.465
ITUPSAT 1 25 Apr 16:24:06 16:27:31 19° 297° (WNW) 16:30:49 437.325
ITAMSAT 1 25 Apr 16:34:29 16:35:21 10° 275° (W) 16:35:51 435.822/435.867
HORYU 2 25 Apr 16:36:55 16:41:08 39° 262° (W) 16:45:22 437.375
ISS 25 Apr 16:39:08 16:41:47 22° 8° (N) 16:44:26 145.825
JAS-2 25 Apr 16:42:11 16:50:04 74° 258° (WSW) 16:57:42 435.910
RS-15 25 Apr 16:44:31 16:55:12 56° 316° (NW) 17:06:11 29.354- 29.394
GONETS M04 25 Apr 16:45:37 16:53:56 52° 90° (E) 17:02:24
PCSat 25 Apr 16:49:23 16:53:55 26° 44° (NE) 16:58:29 145.827
KKS-1 25 Apr 16:52:40 16:56:52 39° 290° (WNW) 17:01:02 437.445
BEESAT 25 Apr 16:57:36 16:58:11 10° 302° (WNW) 16:58:30 436.000
AO-7 25 Apr 17:04:43 17:12:44 51° 259° (W) 17:20:45 29.400- 29.500
Cosmos 2504 25 Apr 17:11:38 17:14:42 12° 311° (NW) 17:17:08 435.465 / 435.565
MOZHAYETS 4 25 Apr 17:18:01 17:21:59 29° 94° (E) 17:25:59
CUSAT 1 25 Apr 17:36:30 17:39:57 42° 92° (E) 17:44:31 437.405
CUTE-I 25 Apr 17:38:50 17:43:11 27° 65° (ENE) 17:47:36 437.470
Cosmos 2499 25 Apr 17:41:47 17:47:46 22° 81° (E) 17:54:02 435.465 / 435.565
Cubesat XI-IV 25 Apr 17:48:03 17:52:42 32° 66° (ENE) 17:57:25 437.490
STARS 25 Apr 17:48:38 17:51:43 18° 296° (WNW) 17:54:40 437.465
VERMONT LUNAR 25 Apr 17:50:25 17:53:20 27° 162° (SSE) 17:56:16 437.305
DANDE 25 Apr 18:14:56 18:18:18 83° 100° (E) 18:22:50 436.750
ISS 25 Apr 18:15:23 18:18:37 58° 27° (NNE) 18:21:51 145.825
PHONESAT 2.4 25 Apr 18:17:23 18:20:06 21° 156° (SSE) 18:22:52 2401.200-2431.200
JAS-2 25 Apr 18:32:02 18:36:23 15° 277° (W) 18:40:10 435.910
PCSat 25 Apr 18:32:23 18:37:43 57° 244° (WSW) 18:43:00 145.827
GONETS M04 25 Apr 18:43:03 18:51:08 38° 292° (WNW) 18:59:08
CUBESAT XI-V 25 Apr 18:54:14 18:57:55 24° 93° (E) 19:01:42 437.345
MOZHAYETS 4 25 Apr 18:55:10 18:59:13 30° 291° (WNW) 19:03:10
STRAND 1 25 Apr 18:58:48 19:01:06 13° 87° (E) 19:03:39 437.568
RS-15 25 Apr 19:01:45 19:10:48 27° 348° (NNW) 19:20:02 29.354- 29.394
HO-68 25 Apr 19:02:44 19:06:38 16° 51° (NE) 19:10:51 435.675
AUBIESAT-1 25 Apr 19:08:12 19:11:31 23° 97° (E) 19:14:41 437.475
CUTE-I 25 Apr 19:18:00 19:23:04 44° 262° (W) 19:28:09 437.470
CUSAT 1 25 Apr 19:20:38 19:23:20 16° 302° (WNW) 19:26:20 437.405
BRITE-PL 25 Apr 19:24:46 19:26:58 14° 63° (ENE) 19:29:22 437.365/2234.400
SO-50 25 Apr 19:25:21 19:29:00 21° 36° (NE) 19:32:45 436.795
VERMONT LUNAR 25 Apr 19:27:12 19:30:29 47° 178° (S) 19:33:45 437.305
Cubesat XI-IV 25 Apr 19:27:52 19:32:46 36° 264° (W) 19:37:38 437.490
PRISM 25 Apr 19:29:34 19:33:12 30° 96° (E) 19:36:50 437.425
Cosmos 2499 25 Apr 19:31:09 19:40:05 86° 280° (W) 19:48:45 435.465 / 435.565
DOVE 4 25 Apr 19:50:14 19:51:52 12° 60° (ENE) 19:53:44 437.250
ISS 25 Apr 19:52:16 19:54:45 20° 224° (SW) 19:57:12 145.825
PHONESAT 2.4 25 Apr 19:54:29 19:57:56 44° 173° (S) 20:01:22 2401.200-2431.200
M-CUBED/EXP-1 PRIME 25 Apr 19:59:48 20:04:06 79° 290° (WNW) 20:08:00 437.505
SEEDS 25 Apr 20:08:58 20:11:41 17° 65° (ENE) 20:14:32 437.485
CANX-2 25 Apr 20:16:21 20:19:54 26° 68° (ENE) 20:23:32 2200.000
CUTE 1.7 + AOD 2 25 Apr 20:25:19 20:29:02 29° 69° (ENE) 20:32:47 437.475
AAUSAT CUBESAT 2 25 Apr 20:26:04 20:28:53 18° 66° (ENE) 20:31:51 437.432
CUBESAT XI-V 25 Apr 20:31:15 20:35:29 36° 290° (WNW) 20:39:42 437.345
CINEMA 3 25 Apr 20:33:29 20:36:22 18° 64° (ENE) 20:39:28 145.822/145.860
CUBEBUG 2 25 Apr 20:35:42 20:36:04 10° 59° (ENE) 20:36:41 437.445
STRAND 1 25 Apr 20:35:53 20:41:00 78° 287° (WNW) 20:46:06 437.568
YUBILEINY 25 Apr 20:36:18 20:41:18 17° 55° (NE) 20:46:45 435.215
AUBIESAT-1 25 Apr 20:42:38 20:46:24 31° 297° (WNW) 20:49:52 437.475
HO-68 25 Apr 20:46:08 20:53:16 72° 70° (ENE) 21:00:29 435.675
GOMX 1 25 Apr 20:48:19 20:52:29 67° 74° (ENE) 20:56:53 467.674
UWE-3 25 Apr 20:59:40 21:02:05 15° 62° (ENE) 21:04:42 435.000/436.395/437.385
BRITE-PL 25 Apr 21:01:00 21:05:05 55° 261° (W) 21:09:20 437.365/2234.400
VERMONT LUNAR 25 Apr 21:04:35 21:07:40 32° 195° (SSW) 21:10:44 437.305
SO-50 25 Apr 21:05:12 21:10:11 80° 237° (WSW) 21:15:05 436.795
PRISM 25 Apr 21:05:13 21:08:34 24° 293° (WNW) 21:11:49 437.425
FUNcube-1 25 Apr 21:09:20 21:11:42 15° 63° (ENE) 21:14:15 145.935
UKube-1 25 Apr 21:16:22 21:17:20 11° 60° (ENE) 21:18:31 .
COMPASS 1 25 Apr 21:17:19 21:21:32 71° 76° (ENE) 21:25:48 437.405
RS-15 25 Apr 21:18:10 21:27:47 31° 22° (NNE) 21:37:56 29.354- 29.394
DOVE 4 25 Apr 21:24:47 21:29:01 75° 258° (WSW) 21:33:31 437.250
Cosmos 2499 25 Apr 21:28:15 21:34:40 21° 301° (WNW) 21:40:33 435.465 / 435.565
HUMSAT D 25 Apr 21:30:42 21:32:13 12° 62° (ENE) 21:33:57 437.325/437.525
Oscar 11 25 Apr 21:32:07 21:36:14 43° 72° (ENE) 21:40:24 145.826/435.025
PHONESAT 2.4 25 Apr 21:32:29 21:35:55 42° 189° (S) 21:39:19 2401.200-2431.200
ZACube-1 25 Apr 21:33:20 21:36:53 25° 67° (ENE) 21:40:36 437.345
DELFI C3 25 Apr 21:35:46 21:39:27 34° 71° (ENE) 21:43:11 145.870
SEEDS 25 Apr 21:43:00 21:47:09 49° 262° (W) 21:51:20 437.485
CANX-2 25 Apr 21:51:55 21:55:46 30° 265° (W) 21:59:35 2200.000
AISAT 25 Apr 21:56:47 21:59:10 15° 63° (ENE) 22:01:45 437.250
AAUSAT CUBESAT 2 25 Apr 22:00:10 22:04:14 44° 262° (W) 22:08:18 437.432
CUTE 1.7 + AOD 2 25 Apr 22:01:14 22:04:56 27° 266° (W) 22:08:36 437.475
DX 1 25 Apr 22:05:59 22:09:54 35° 69° (ENE) 22:13:54 434.975-435.025
CUBEBUG 2 25 Apr 22:07:39 22:12:01 85° 80° (E) 22:16:36 437.445
CINEMA 3 25 Apr 22:08:58 22:13:11 50° 262° (W) 22:17:38 145.822/145.860
STRAND 1 25 Apr 22:17:45 22:19:27 11° 303° (WNW) 22:20:54 437.568
50 SAT 25 Apr 22:22:30 22:25:43 24° 68° (ENE) 22:29:02 437.505
Cosmos 2491 25 Apr 22:23:22 22:30:42 33° 85° (E) 22:38:17 435.465 / 435.565
GOMX 1 25 Apr 22:30:00 22:31:20 11° 275° (W) 22:32:25 467.674
YUBILEINY 25 Apr 22:31:18 22:40:06 75° 80° (E) 22:48:48 435.215
UWE-3 25 Apr 22:33:48 22:38:08 62° 260° (W) 22:42:37 435.000/436.395/437.385
ESTCUBE 1 25 Apr 22:34:57 22:38:09 20° 65° (ENE) 22:41:29 437.505/2401.250
HO-68 25 Apr 22:36:08 22:41:44 23° 270° (W) 22:47:07 435.675
O/OREOS (USA 219) 25 Apr 22:37:24 22:41:43 43° 108° (ESE) 22:46:05 437.305
FUNcube-1 25 Apr 22:43:14 22:47:33 62° 260° (W) 22:51:59 145.935
VERMONT LUNAR 25 Apr 22:43:27 22:44:34 11° 210° (SSW) 22:45:36 437.305
UKube-1 25 Apr 22:48:33 22:52:52 86° 256° (WSW) 22:57:14 .
SO-50 25 Apr 22:49:00 22:50:01 10° 253° (WSW) 22:50:43 436.795
TIGRISAT 25 Apr 22:56:23 22:59:43 19° 90° (E) 23:03:09 435.000
COMPASS 1 25 Apr 22:56:39 22:57:49 11° 273° (W) 22:58:43 437.405
UNISAT 6 25 Apr 23:00:32 23:04:08 22° 91° (E) 23:07:48 437.425
HUMSAT D 25 Apr 23:03:12 23:07:25 75° 258° (WSW) 23:11:44 437.325/437.525
ZACube-1 25 Apr 23:09:11 23:13:08 33° 265° (W) 23:17:10 437.345
Oscar 11 25 Apr 23:09:31 23:12:40 19° 269° (W) 23:15:42 145.826/435.025
Cosmos 2504 25 Apr 23:10:34 23:14:04 14° 52° (NE) 23:17:55 435.465 / 435.565
PHONESAT 2.4 25 Apr 23:11:07 23:13:42 18° 205° (SSW) 23:16:14 2401.200-2431.200
DELFI C3 25 Apr 23:11:33 23:14:42 21° 268° (W) 23:17:46 145.870
VELOX 1 25 Apr 23:12:58 23:17:22 83° 74° (ENE) 23:21:48 145.980
CUBEBUG 1 25 Apr 23:18:22 23:22:29 45° 72° (ENE) 23:26:38 437.445
BUGSAT 1 25 Apr 23:25:52 23:27:19 12° 88° (E) 23:28:59 437.445
POLYITAN 1 25 Apr 23:30:03 23:33:15 20° 92° (E) 23:36:33 437.675
AISAT 25 Apr 23:30:59 23:35:20 61° 259° (W) 23:39:44 437.250
DUCHIFAT 1 25 Apr 23:31:01 23:34:08 20° 92° (E) 23:37:20 145.980
RS-15 25 Apr 23:31:11 23:42:40 72° 51° (NE) 23:54:43 29.354- 29.394
ANTELSAT 25 Apr 23:41:53 23:46:33 57° 100° (E) 23:51:09 437.575/2403.000
DX 1 25 Apr 23:42:51 23:46:17 22° 267° (W) 23:49:39 434.975-435.025
QB50P1 25 Apr 23:48:05 23:51:52 31° 95° (E) 23:55:43 145.935-145.965
50 SAT 25 Apr 23:56:54 00:00:25 29° 265° (W) 00:03:57 437.505
TISAT 1 26 Apr 00:07:43 00:11:27 33° 70° (ENE) 00:15:15 437.305
ESTCUBE 1 26 Apr 00:10:25 00:14:45 45° 261° (W) 00:19:06 437.505/2401.250
QB50P2 26 Apr 00:13:54 00:18:11 60° 101° (E) 00:22:26 145.880/145.840
O/OREOS (USA 219) 26 Apr 00:17:43 00:21:23 22° 306° (NW) 00:24:57 437.305
Cosmos 2491 26 Apr 00:18:36 00:27:10 58° 285° (WNW) 00:35:49 435.465 / 435.565
YUBILEINY 26 Apr 00:29:23 00:36:07 25° 279° (W) 00:42:30 435.215
NANOSAT C BR1 26 Apr 00:31:57 00:36:16 88° 287° (WNW) 00:40:34 145.865
TIGRISAT 26 Apr 00:32:12 00:36:46 47° 288° (WNW) 00:41:14 435.000
POPSAT HIP 1 26 Apr 00:35:13 00:39:32 82° 284° (WNW) 00:43:50 437.405
UNISAT 6 26 Apr 00:36:39 00:41:07 42° 289° (WNW) 00:45:30 437.425
SPROUT 26 Apr 00:38:13 00:42:30 88° 77° (ENE) 00:46:49 437.525
BEESAT 26 Apr 00:48:15 00:51:24 18° 63° (ENE) 00:54:41 436.000
SWISSCUBE 26 Apr 00:50:28 00:53:54 20° 64° (ENE) 00:57:27 437.505
CUBEBUG 1 26 Apr 00:56:09 00:59:08 17° 269° (W) 01:01:58 437.445
BUGSAT 1 26 Apr 00:59:10 01:03:16 63° 286° (WNW) 01:07:24 437.445
Cosmos 2504 26 Apr 01:01:31 01:09:37 67° 78° (ENE) 01:17:06 435.465 / 435.565
POLYITAN 1 26 Apr 01:05:18 01:09:20 38° 289° (WNW) 01:13:20 437.675
DUCHIFAT 1 26 Apr 01:06:07 01:10:08 39° 289° (WNW) 01:14:06 145.980
ANTELSAT 26 Apr 01:19:43 01:22:56 18° 297° (WNW) 01:25:59 437.575/2403.000
QB50P1 26 Apr 01:24:05 01:27:40 26° 292° (WNW) 01:31:10 145.935-145.965
AIST 1 26 Apr 01:32:10 01:36:28 75° 279° (W) 01:40:47
TISAT 1 26 Apr 01:43:59 01:47:20 22° 267° (W) 01:50:37 437.305
RS-15 26 Apr 01:44:16 01:54:31 37° 252° (WSW) 02:04:49 29.354- 29.394
QB50P2 26 Apr 01:51:13 01:53:39 15° 297° (WNW) 01:55:56 145.880/145.840
ITUPSAT 1 26 Apr 01:53:20 01:58:07 71° 74° (ENE) 02:02:55 437.325
KKS-1 26 Apr 02:16:20 02:19:51 24° 66° (ENE) 02:23:28 437.445
Cosmos 2491 26 Apr 02:23:04 02:26:37 12° 311° (NW) 02:29:35 435.465 / 435.565
BEESAT 26 Apr 02:24:08 02:28:52 57° 260° (W) 02:33:35 436.000
Oscar 19 26 Apr 02:26:01 02:31:02 47° 98° (E) 02:36:03 437.125/150
SWISSCUBE 26 Apr 02:26:48 02:31:27 50° 261° (W) 02:36:07 437.505
CUSAT 1 26 Apr 02:29:44 02:32:22 12° 54° (NE) 02:35:37 437.405
GONETS M04 26 Apr 02:54:15 03:01:29 28° 63° (ENE) 03:08:54
Cosmos 2504 26 Apr 02:56:02 03:02:18 25° 278° (W) 03:08:02 435.465 / 435.565
ITAMSAT 1 26 Apr 03:01:30 03:06:02 31° 95° (E) 03:10:39 435.822/435.867
BEESAT 3 26 Apr 03:05:11 03:09:04 44° 119° (ESE) 03:13:02 437.485
BEESAT 2 26 Apr 03:07:00 03:10:49 39° 118° (ESE) 03:14:44 435.950
DANDE 26 Apr 03:09:07 03:13:55 19° 61° (ENE) 03:19:34 436.750
STARS 26 Apr 03:09:26 03:13:41 52° 72° (ENE) 03:18:00 437.465
Gurwin Techsat 1B 26 Apr 03:32:32 03:37:44 53° 99° (E) 03:42:56 435.225
ITUPSAT 1 26 Apr 03:34:11 03:36:37 13° 272° (W) 03:38:48 437.325
KKS-1 26 Apr 03:52:15 03:56:21 35° 263° (W) 04:00:26 437.445
JAS-2 26 Apr 03:53:57 03:56:56 14° 82° (E) 04:00:07 435.910
Oscar 19 26 Apr 04:05:56 04:10:08 25° 296° (WNW) 04:14:14 437.125/150
AIST 2 26 Apr 04:09:02 04:13:12 56° 120° (ESE) 04:17:25 435.215
CUSAT 1 26 Apr 04:09:25 04:16:44 55° 74° (ENE) 04:24:55 437.405
MOZHAYETS 4 26 Apr 04:21:13 04:25:21 33° 69° (ENE) 04:29:31
HORYU 2 26 Apr 04:26:40 04:30:48 35° 97° (E) 04:34:55 437.375
ITAMSAT 1 26 Apr 04:40:53 04:45:36 35° 293° (WNW) 04:50:15 435.822/435.867
BEESAT 3 26 Apr 04:43:57 04:47:18 23° 318° (NW) 04:50:36 437.485
BEESAT 2 26 Apr 04:45:34 04:49:04 25° 316° (NW) 04:52:34 435.950
STARS 26 Apr 04:47:47 04:50:31 16° 270° (W) 04:53:06 437.465
GONETS M04 26 Apr 04:50:26 04:59:15 71° 266° (W) 05:07:58
DANDE 26 Apr 04:50:46 04:58:10 80° 79° (ENE) 05:06:44 436.750
AO-7 26 Apr 05:04:11 05:12:15 52° 101° (E) 05:20:21 29.400- 29.500
Gurwin Techsat 1B 26 Apr 05:13:16 05:17:24 23° 297° (WNW) 05:21:25 435.225
M-CUBED/EXP-1 PRIME 26 Apr 05:15:04 05:18:43 22° 60° (ENE) 05:22:27 437.505
Cosmos 2499 26 Apr 05:22:05 05:29:11 37° 69° (ENE) 05:35:55 435.465 / 435.565
JAS-2 26 Apr 05:36:47 05:43:17 86° 285° (WNW) 05:48:58 435.910
AIST 2 26 Apr 05:48:49 05:52:08 21° 319° (NW) 05:55:24 435.215
CUSAT 1 26 Apr 05:52:29 05:59:22 37° 269° (W) 06:06:40 437.405
AUBIESAT-1 26 Apr 05:56:00 06:00:33 45° 66° (ENE) 06:05:07 437.475
MOZHAYETS 4 26 Apr 05:58:37 06:02:37 27° 266° (W) 06:06:33
CUBESAT XI-V 26 Apr 05:59:04 06:02:57 28° 68° (ENE) 06:06:55 437.345
HORYU 2 26 Apr 06:03:36 06:07:18 25° 294° (WNW) 06:10:54 437.375
Cubesat XI-IV 26 Apr 06:06:49 06:07:18 10° 84° (E) 06:08:10 437.490
STRAND 1 26 Apr 06:15:27 06:19:25 24° 64° (ENE) 06:23:30 437.568
PRISM 26 Apr 06:21:11 06:24:44 28° 68° (ENE) 06:28:20 437.425
DANDE 26 Apr 06:35:09 06:41:02 24° 273° (W) 06:47:11 436.750
M-CUBED/EXP-1 PRIME 26 Apr 06:48:31 06:53:14 52° 255° (WSW) 06:57:58 437.505
GONETS M04 26 Apr 06:50:23 06:54:37 14° 285° (WNW) 06:58:14
AO-7 26 Apr 06:57:19 07:04:55 40° 300° (WNW) 07:12:24 29.400- 29.500
O/OREOS (USA 219) 26 Apr 07:07:57 07:10:18 14° 48° (NE) 07:12:48 437.305
Cosmos 2499 26 Apr 07:15:12 07:22:33 45° 271° (W) 07:29:19 435.465 / 435.565
JAS-2 26 Apr 07:23:35 07:27:20 16° 306° (NW) 07:30:37 435.910
AUBIESAT-1 26 Apr 07:31:37 07:35:29 23° 263° (W) 07:39:16 437.475
CUTE-I 26 Apr 07:33:15 07:38:34 67° 102° (ESE) 07:43:52 437.470
PCSat 26 Apr 07:34:48 07:37:36 15° 105° (ESE) 07:40:39 145.827
CUBESAT XI-V 26 Apr 07:36:10 07:40:21 32° 265° (W) 07:44:28 437.345
Cubesat XI-IV 26 Apr 07:43:02 07:48:23 81° 103° (ESE) 07:53:44 437.490
STRAND 1 26 Apr 07:53:27 07:58:23 46° 261° (W) 08:03:18 437.568
PRISM 26 Apr 07:56:39 08:00:12 26° 265° (W) 08:03:41 437.425
HO-68 26 Apr 08:16:30 08:17:39 11° 82° (E) 08:19:26 435.675
Cosmos 2491 26 Apr 08:31:40 08:37:04 18° 56° (NE) 08:42:55 435.465 / 435.565
O/OREOS (USA 219) 26 Apr 08:45:51 08:50:23 77° 248° (WSW) 08:54:49 437.305
GOMX 1 26 Apr 08:48:29 08:52:20 21° 91° (E) 08:56:28 467.674
AO-7 26 Apr 08:54:30 08:55:33 10° 323° (NW) 08:56:10 29.400- 29.500
COMPASS 1 26 Apr 09:02:27 09:03:01 10° 86° (E) 09:03:50 437.405
BRITE-PL 26 Apr 09:03:01 09:07:51 42° 97° (E) 09:13:01 437.365/2234.400
CUTE-I 26 Apr 09:14:30 09:18:11 19° 299° (WNW) 09:21:43 437.470
PCSat 26 Apr 09:14:58 09:20:24 82° 303° (WNW) 09:25:52 145.827
DOVE 4 26 Apr 09:22:00 09:26:27 30° 94° (E) 09:31:05 437.250
Cubesat XI-IV 26 Apr 09:24:44 09:27:54 16° 301° (WNW) 09:30:51 437.490
SEEDS 26 Apr 09:26:27 09:29:54 24° 93° (E) 09:33:25 437.485
CANX-2 26 Apr 09:35:27 09:39:30 40° 97° (E) 09:43:32 2200.000
YUBILEINY 26 Apr 09:41:39 09:46:27 17° 77° (ENE) 09:51:46 435.215
AAUSAT CUBESAT 2 26 Apr 09:42:10 09:45:38 25° 94° (E) 09:49:09 437.432
CUTE 1.7 + AOD 2 26 Apr 09:44:26 09:48:34 46° 98° (E) 09:52:41 437.475
